Home   Weather   Jessore   Past weeks

Flag for Bangladesh Past Weather in Jessore, Bangladesh — Yesterday and Last 2 Weeks

Now
73 °F

Clear.


Feels Like: 77 °F
Forecast: 69 / 87 °F
Wind: 2 mph from Southwest

Location: Phrae

Current Time: Feb 22, 2017 at 9:48:19 pm

Latest Report: Feb 22, 2017 at 9:00 pm


Visibility: N/A

Pressure: 29.89 "Hg

Humidity: 53%

Dew Point: 55 °F

Location of JessoreLocation

Past Weather in Jessore — Graph

°F

Jessore Temperature Yesterday

Maximum temperature yesterday: 93 °F (at 1:00 pm)
Minimum temperature yesterday: 63 °F (at 5:00 am)
Average temperature yesterday: 76 °F

High & Low Weather Summary for the Past Weeks

 TemperatureHumidityPressure
High95 °F (Feb 22, 2:00 pm)100% (Feb 8, 3:00 am)30.21 "Hg (Feb 8, 3:00 am)
Low59 °F (Feb 8, 4:00 am)21% (Feb 8, 2:00 pm)29.71 "Hg (Feb 20, 2:00 pm)
Average75 °F63%29.96 "Hg
* Reported Feb 7 8:00 pm — Feb 22 8:00 pm, Jessore, Weather by CustomWeather, © 2017

Note: Actual official high and low records may vary slightly from our data, if they occured in-between our weather recording intervals... More about our weather records

Advertising

Jessore Weather History for the Previous 24 Hours

Scroll right to see more
 ConditionsComfort  
Time TempWeatherWind HumidityBarometerVisibility
8:00 pm
Wed, Feb 22
75 °FClear.1 mph50%29.86 "HgN/A
7:00 pm79 °FClear.3 mph45%29.83 "HgN/A
6:00 pm82 °FClear.1 mph37%29.80 "HgN/A
5:00 pm90 °FSunny.5 mph29%29.77 "HgN/A
4:00 pm93 °FExtremely hot.7 mph28%29.77 "Hg4 mi
3:00 pm95 °FClear.7 mph25%29.77 "Hg4 mi
2:00 pm95 °FPassing clouds.8 mph23%29.80 "Hg4 mi
12:00 pm91 °FHaze.7 mph28%29.86 "Hg3 mi
11:00 am88 °FSunny.3 mph35%29.92 "HgN/A
10:00 am82 °FHaze.No wind42%29.95 "Hg2 mi
9:00 am73 °FSunny.1 mph61%29.95 "HgN/A
8:00 am70 °FSunny.1 mph69%29.95 "HgN/A
6:00 am61 °FFog.2 mph94%29.89 "Hg2 mi
5:00 am61 °FClear.No wind94%29.86 "HgN/A
4:00 am61 °FClear.1 mph88%29.86 "HgN/A
3:00 am63 °FClear.No wind83%29.86 "HgN/A
2:00 am64 °FClear.No wind78%29.86 "HgN/A
1:00 am64 °FClear.No wind78%29.86 "HgN/A
12:00 am66 °FClear.No wind73%29.89 "HgN/A
11:00 pm
Tue, Feb 21
68 °FClear.1 mph69%29.89 "HgN/A
10:00 pm70 °FClear.No wind60%29.86 "HgN/A
9:00 pm73 °FClear.1 mph47%29.86 "HgN/A
Weather by CustomWeather, © 2017

See weather overviewHow to use our weather pages